SRR902 EGBB-EKBI

Flight info

Callsign SRR902
Flight time 1h 10m
Altitude 23000
Route LUVUM DCT TNT M868 ADELU/N0481F310 L60 MAMUL L603 LAMIX UT29 LIBSO UL975 ERDOW DCT ROPAL DCT LESRA L975 GOLUM N866 AMRAM P60 EPILO DCT GELBA
Aircraft B77L/H-SDE1E2E3FGHIJ2J3J4J5M1RWXY/LB1D1

Departure

Time 2026-04-27 15:12
Airport Birmingham Airport (EGBB)

Arrival

Time 2026-04-27 16:22
Airport Billund Airport (EKBI)
Time Latitude Longitude Altitude Speed Heading
2026-04-27 14:24 52.45026 -1.74910 329 ft 0 kts 236°
2026-04-27 15:00 52.45026 -1.74909 333 ft 1 kts 236°
2026-04-27 15:00 52.45039 -1.74876 328 ft 4 kts 244°
2026-04-27 15:00 52.45048 -1.74835 328 ft 4 kts 259°
2026-04-27 15:00 52.45049 -1.74793 328 ft 4 kts 288°
2026-04-27 15:01 52.45040 -1.74768 328 ft 0 kts 326°
2026-04-27 15:04 52.45041 -1.74769 328 ft 2 kts 326°
2026-04-27 15:04 52.45105 -1.74840 329 ft 16 kts 326°
2026-04-27 15:04 52.45177 -1.74934 329 ft 12 kts 302°
2026-04-27 15:05 52.45166 -1.75054 329 ft 11 kts 274°
2026-04-27 15:05 52.45222 -1.75140 329 ft 12 kts 343°
2026-04-27 15:05 52.45265 -1.75109 329 ft 11 kts 48°
2026-04-27 15:05 52.45303 -1.75013 326 ft 1 kts 57°
2026-04-27 15:06 52.45304 -1.75012 326 ft 0 kts 57°
2026-04-27 15:07 52.45305 -1.75008 330 ft 3 kts 57°
2026-04-27 15:07 52.45342 -1.74916 323 ft 14 kts 57°
2026-04-27 15:08 52.45396 -1.74780 325 ft 14 kts 56°
2026-04-27 15:08 52.45450 -1.74634 324 ft 17 kts 60°
2026-04-27 15:08 52.45446 -1.74478 325 ft 14 kts 115°
2026-04-27 15:08 52.45399 -1.74325 326 ft 16 kts 117°
2026-04-27 15:09 52.45314 -1.74195 323 ft 18 kts 146°
2026-04-27 15:09 52.45209 -1.74079 324 ft 19 kts 146°
2026-04-27 15:09 52.45092 -1.73951 324 ft 21 kts 145°
2026-04-27 15:09 52.44967 -1.73811 326 ft 23 kts 145°
2026-04-27 15:10 52.44850 -1.73690 324 ft 16 kts 164°
2026-04-27 15:10 52.44741 -1.73732 324 ft 16 kts 213°
2026-04-27 15:10 52.44677 -1.73879 327 ft 16 kts 236°
2026-04-27 15:10 52.44648 -1.73969 330 ft 4 kts 277°
2026-04-27 15:11 52.44667 -1.74000 330 ft 0 kts 322°
2026-04-27 15:11 52.44744 -1.74088 327 ft 49 kts 326°
2026-04-27 15:11 52.45305 -1.74716 330 ft 142 kts 326°
2026-04-27 15:12 52.46194 -1.75696 1121 ft 147 kts 329°
2026-04-27 15:12 52.47047 -1.76631 2253 ft 156 kts 326°
2026-04-27 15:12 52.47966 -1.77681 3198 ft 163 kts 326°
2026-04-27 15:12 52.48918 -1.78718 4286 ft 166 kts 335°
2026-04-27 15:13 52.50105 -1.79023 5205 ft 188 kts
2026-04-27 15:13 52.51527 -1.78760 5733 ft 226 kts
2026-04-27 15:13 52.53202 -1.78435 6487 ft 252 kts
2026-04-27 15:13 52.54990 -1.78075 7726 ft 260 kts
2026-04-27 15:14 52.56817 -1.77702 9021 ft 269 kts
2026-04-27 15:14 52.58692 -1.77318 10369 ft 274 kts
2026-04-27 15:14 52.60625 -1.76924 11380 ft 290 kts
2026-04-27 15:14 52.62736 -1.76501 11885 ft 324 kts
2026-04-27 15:15 52.65098 -1.76026 12241 ft 358 kts
2026-04-27 15:15 52.67623 -1.75503 13251 ft 371 kts
2026-04-27 15:15 52.70204 -1.74960 14494 ft 376 kts
2026-04-27 15:15 52.72799 -1.74407 15709 ft 379 kts
2026-04-27 15:16 52.75438 -1.73818 16921 ft 384 kts
2026-04-27 15:16 52.78105 -1.73212 17997 ft 390 kts
2026-04-27 15:16 52.80820 -1.72594 18977 ft 397 kts
2026-04-27 15:16 52.83563 -1.71970 20025 ft 398 kts
2026-04-27 15:17 52.86301 -1.71345 21228 ft 395 kts
2026-04-27 15:17 52.89020 -1.70725 22412 ft 394 kts
2026-04-27 15:17 52.91736 -1.70109 23512 ft 395 kts
2026-04-27 15:17 52.94467 -1.69490 24395 ft 397 kts
2026-04-27 15:18 52.97213 -1.68868 25207 ft 400 kts
2026-04-27 15:18 52.99981 -1.68240 26028 ft 403 kts
2026-04-27 15:18 53.02756 -1.67897 26881 ft 397 kts 354°
2026-04-27 15:18 53.05499 -1.68236 27675 ft 396 kts 349°
2026-04-27 15:19 53.08232 -1.68987 28331 ft 399 kts 345°
2026-04-27 15:19 53.10904 -1.70261 28949 ft 401 kts 338°
2026-04-27 15:19 53.13556 -1.71717 29401 ft 406 kts 344°
2026-04-27 15:19 53.16373 -1.72374 30097 ft 410 kts 352°
2026-04-27 15:20 53.19223 -1.72475 30871 ft 410 kts 357°
2026-04-27 15:20 53.22084 -1.72039 31293 ft 419 kts
2026-04-27 15:20 53.27754 -1.69644 31295 ft 424 kts
2026-04-27 15:21 53.33472 -1.66832 31285 ft 432 kts 17°
2026-04-27 15:21 53.38729 -1.61900 31272 ft 442 kts 27°
2026-04-27 15:22 53.41062 -1.58468 31272 ft 457 kts 42°
2026-04-27 15:22 53.42686 -1.53757 31317 ft 481 kts 62°
2026-04-27 15:22 53.43443 -1.48200 31286 ft 498 kts 78°
2026-04-27 15:22 53.43361 -1.42314 31264 ft 512 kts 93°
2026-04-27 15:23 53.42031 -1.30529 31280 ft 515 kts 95°
2026-04-27 15:23 53.40284 -1.18831 31256 ft 521 kts 102°
2026-04-27 15:24 53.38095 -1.07253 31263 ft 521 kts 103°
2026-04-27 15:24 53.35918 -0.95702 31276 ft 520 kts 103°
2026-04-27 15:25 53.33778 -0.84144 31267 ft 519 kts 103°
2026-04-27 15:25 53.31971 -0.72584 31263 ft 507 kts 90°
2026-04-27 15:26 53.32034 -0.66745 31271 ft 499 kts 77°
2026-04-27 15:26 53.32742 -0.61098 31274 ft 494 kts 66°
2026-04-27 15:26 53.35587 -0.50829 31276 ft 487 kts 57°
2026-04-27 15:27 53.38543 -0.40587 31283 ft 490 kts 59°
2026-04-27 15:27 53.41424 -0.30229 31268 ft 489 kts 58°
2026-04-27 15:28 53.44325 -0.19938 31285 ft 487 kts 58°
2026-04-27 15:28 53.47213 -0.09671 31286 ft 486 kts 58°
2026-04-27 15:29 53.50082 0.00596 31320 ft 486 kts 59°
2026-04-27 15:29 53.53383 0.10449 31287 ft 482 kts 50°
2026-04-27 15:30 53.57625 0.19075 31294 ft 477 kts 42°
2026-04-27 15:30 53.62093 0.27247 31323 ft 479 kts 42°
2026-04-27 15:31 53.66624 0.35622 31288 ft 481 kts 42°
2026-04-27 15:31 53.71096 0.43999 31286 ft 480 kts 43°
2026-04-27 15:32 53.75517 0.52326 31354 ft 479 kts 43°
2026-04-27 15:32 53.79990 0.60772 31298 ft 484 kts 44°
2026-04-27 15:33 53.84484 0.69293 31290 ft 485 kts 44°
2026-04-27 15:33 53.88978 0.77839 31288 ft 485 kts 44°
2026-04-27 15:34 53.93345 0.86557 31283 ft 487 kts 50°
2026-04-27 15:34 53.97255 0.95971 31285 ft 488 kts 51°
2026-04-27 15:35 54.01110 1.05441 31292 ft 487 kts 51°
2026-04-27 15:35 54.04990 1.14923 31282 ft 489 kts 52°
2026-04-27 15:36 54.08893 1.24436 31284 ft 491 kts 52°
2026-04-27 15:36 54.12801 1.33983 31282 ft 492 kts 52°
2026-04-27 15:37 54.16708 1.43565 31283 ft 492 kts 52°
2026-04-27 15:37 54.20610 1.53174 31281 ft 492 kts 52°
2026-04-27 15:38 54.24503 1.62798 31312 ft 493 kts 53°
2026-04-27 15:38 54.28402 1.72474 31285 ft 494 kts 53°
2026-04-27 15:39 54.32298 1.82183 31276 ft 494 kts 53°
2026-04-27 15:39 54.36185 1.91908 31283 ft 494 kts 53°
2026-04-27 15:40 54.40061 2.01643 31282 ft 494 kts 53°
2026-04-27 15:40 54.43924 2.11381 31283 ft 494 kts 53°
2026-04-27 15:41 54.47788 2.21158 31274 ft 497 kts 54°
2026-04-27 15:41 54.51648 2.30966 31286 ft 498 kts 54°
2026-04-27 15:42 54.55554 2.40930 31285 ft 499 kts 54°
2026-04-27 15:42 54.59424 2.50846 31285 ft 498 kts 54°
2026-04-27 15:43 54.63256 2.60700 31293 ft 497 kts 54°
2026-04-27 15:43 54.67120 2.70676 31288 ft 497 kts 55°
2026-04-27 15:44 54.70976 2.80669 31293 ft 501 kts 56°
2026-04-27 15:44 54.74813 2.90655 31312 ft 502 kts 56°
2026-04-27 15:45 54.78699 3.00813 31302 ft 502 kts 56°
2026-04-27 15:45 54.82514 3.10824 31314 ft 500 kts 56°
2026-04-27 15:46 54.86334 3.20890 31314 ft 499 kts 56°
2026-04-27 15:46 54.90171 3.31039 31309 ft 500 kts 56°
2026-04-27 15:47 54.93971 3.41132 31328 ft 504 kts 57°
2026-04-27 15:47 54.97827 3.51420 31342 ft 505 kts 57°
2026-04-27 15:48 55.01635 3.61622 31330 ft 504 kts 57°
2026-04-27 15:49 55.07331 3.76959 31332 ft 501 kts 57°
2026-04-27 15:49 55.11100 3.87156 31318 ft 501 kts 57°
2026-04-27 15:50 55.14648 3.97656 31342 ft 503 kts 65°
2026-04-27 15:50 55.17360 4.08938 31345 ft 504 kts 69°
2026-04-27 15:51 55.20005 4.20331 31348 ft 505 kts 68°
2026-04-27 15:51 55.22678 4.31703 31339 ft 504 kts 68°
2026-04-27 15:52 55.25352 4.43015 31324 ft 502 kts 68°
2026-04-27 15:52 55.28015 4.54333 31337 ft 502 kts 68°
2026-04-27 15:53 55.30232 4.63814 31346 ft 502 kts 68°
2026-04-27 15:53 55.32878 4.75186 31343 ft 503 kts 68°
2026-04-27 15:54 55.35495 4.86497 31340 ft 504 kts 69°
2026-04-27 15:54 55.38123 4.97906 31345 ft 503 kts 69°
2026-04-27 15:55 55.40725 5.09330 31351 ft 503 kts 69°
2026-04-27 15:55 55.43307 5.20765 31349 ft 502 kts 69°
2026-04-27 15:56 55.46256 5.31891 31343 ft 501 kts 59°
2026-04-27 15:56 55.50079 5.42137 31355 ft 500 kts 56°
2026-04-27 15:57 55.53959 5.52328 31351 ft 500 kts 56°
2026-04-27 15:57 55.57797 5.62578 31338 ft 501 kts 56°
2026-04-27 15:58 55.61614 5.72895 31350 ft 502 kts 56°
2026-04-27 15:58 55.65423 5.83247 31355 ft 501 kts 56°
2026-04-27 15:58 55.67311 5.88395 31084 ft 496 kts 56°
2026-04-27 15:59 55.69175 5.93485 30570 ft 489 kts 56°
2026-04-27 15:59 55.71006 5.98493 29970 ft 479 kts 56°
2026-04-27 15:59 55.72799 6.03409 29409 ft 469 kts 56°
2026-04-27 15:59 55.74553 6.08224 28895 ft 460 kts 56°
2026-04-27 16:00 55.76268 6.12942 28349 ft 451 kts 57°
2026-04-27 16:00 55.77928 6.17519 27849 ft 443 kts 57°
2026-04-27 16:00 55.79578 6.22078 27328 ft 435 kts 56°
2026-04-27 16:00 55.81206 6.26583 26832 ft 431 kts 56°
2026-04-27 16:01 55.82825 6.31067 26357 ft 433 kts 56°
2026-04-27 16:01 55.84463 6.35614 25861 ft 441 kts 56°
2026-04-27 16:01 55.86116 6.40212 25344 ft 439 kts 56°
2026-04-27 16:01 55.87743 6.44750 24849 ft 431 kts 57°
2026-04-27 16:02 55.89340 6.49209 24368 ft 423 kts 57°
2026-04-27 16:02 55.90909 6.53598 23888 ft 416 kts 57°
2026-04-27 16:02 55.92439 6.57914 23335 ft 405 kts 59°
2026-04-27 16:02 55.93573 6.62456 22860 ft 399 kts 73°
2026-04-27 16:03 55.94072 6.67275 22426 ft 392 kts 85°
2026-04-27 16:03 55.94018 6.72084 22010 ft 385 kts 96°
2026-04-27 16:03 55.93726 6.76838 21581 ft 388 kts 96°
2026-04-27 16:03 55.93420 6.81709 21146 ft 404 kts 96°
2026-04-27 16:04 55.93107 6.86746 20687 ft 411 kts 96°
2026-04-27 16:04 55.92800 6.91789 20229 ft 406 kts 96°
2026-04-27 16:04 55.92503 6.96751 19772 ft 399 kts 96°
2026-04-27 16:04 55.92214 7.01614 19326 ft 391 kts 95°
2026-04-27 16:05 55.91931 7.06402 18878 ft 384 kts 95°
2026-04-27 16:05 55.91653 7.11103 18430 ft 378 kts 95°
2026-04-27 16:05 55.91378 7.15731 17960 ft 373 kts 95°
2026-04-27 16:05 55.91104 7.20314 17521 ft 372 kts 95°
2026-04-27 16:06 55.90827 7.24920 17093 ft 378 kts 95°
2026-04-27 16:06 55.90543 7.29620 16650 ft 383 kts 95°
2026-04-27 16:06 55.90257 7.34316 16204 ft 379 kts 95°
2026-04-27 16:06 55.89972 7.38943 15761 ft 372 kts 95°
2026-04-27 16:07 55.89692 7.43465 15317 ft 363 kts 95°
2026-04-27 16:07 55.89418 7.47882 14900 ft 355 kts 95°
2026-04-27 16:07 55.89148 7.52198 14487 ft 347 kts 95°
2026-04-27 16:07 55.88885 7.56382 14082 ft 343 kts 95°
2026-04-27 16:08 55.88620 7.60586 13638 ft 342 kts 95°
2026-04-27 16:08 55.88351 7.64838 13215 ft 349 kts 95°
2026-04-27 16:08 55.88076 7.69178 12783 ft 354 kts 95°
2026-04-27 16:08 55.87797 7.73514 12346 ft 351 kts 95°
2026-04-27 16:09 55.87520 7.77782 11928 ft 342 kts 95°
2026-04-27 16:09 55.87000 7.85989 11138 ft 325 kts 95°
2026-04-27 16:09 55.86753 7.89898 10996 ft 310 kts 96°
2026-04-27 16:10 55.86286 7.97180 10741 ft 282 kts 96°
2026-04-27 16:10 55.85831 8.03805 10510 ft 262 kts 96°
2026-04-27 16:11 55.85602 8.07088 10451 ft 272 kts 96°
2026-04-27 16:11 55.85135 8.13908 10242 ft 282 kts 96°
2026-04-27 16:12 55.84690 8.20912 9299 ft 272 kts 95°
2026-04-27 16:12 55.84481 8.24149 8971 ft 255 kts 95°
2026-04-27 16:12 55.83969 8.30534 8423 ft 270 kts 99°
2026-04-27 16:13 55.83607 8.33809 8112 ft 269 kts 100°
2026-04-27 16:13 55.82914 8.40178 7503 ft 255 kts 99°
2026-04-27 16:13 55.82439 8.43181 7225 ft 253 kts 110°
2026-04-27 16:14 55.80974 8.49085 6679 ft 266 kts 113°
2026-04-27 16:14 55.79492 8.54949 6060 ft 253 kts 112°
2026-04-27 16:15 55.78089 8.60597 5500 ft 250 kts 112°
2026-04-27 16:15 55.76693 8.66270 4934 ft 248 kts 112°
2026-04-27 16:16 55.75339 8.71791 4383 ft 241 kts 112°
2026-04-27 16:16 55.73983 8.77299 3689 ft 245 kts 113°
2026-04-27 16:17 55.73060 8.82677 3381 ft 215 kts 88°
2026-04-27 16:17 55.73183 8.87704 3080 ft 198 kts 87°
2026-04-27 16:18 55.73327 8.92569 2619 ft 194 kts 86°
2026-04-27 16:18 55.73464 8.96964 2137 ft 162 kts 86°
2026-04-27 16:19 55.73524 8.98883 1901 ft 148 kts 86°
2026-04-27 16:19 55.73578 9.00627 1740 ft 139 kts 86°
2026-04-27 16:20 55.73732 9.05585 1170 ft 136 kts 87°
2026-04-27 16:20 55.73784 9.07250 952 ft 135 kts 86°
2026-04-27 16:20 55.73889 9.10537 597 ft 133 kts 87°
2026-04-27 16:21 55.73940 9.12169 418 ft 133 kts 86°
2026-04-27 16:21 55.74063 9.16098 221 ft 56 kts 87°
2026-04-27 16:22 55.74079 9.16645 227 ft 33 kts 86°
2026-04-27 16:22 55.74174 9.16909 225 ft 11 kts 355°
2026-04-27 16:22 55.74245 9.16863 226 ft 11 kts 303°
2026-04-27 16:23 55.74248 9.16713 223 ft 13 kts 266°
2026-04-27 16:23 55.74236 9.16323 227 ft 18 kts 266°
2026-04-27 16:23 55.74229 9.16087 221 ft 20 kts 266°
2026-04-27 16:24 55.74221 9.15826 227 ft 22 kts 267°
2026-04-27 16:24 55.74203 9.15270 221 ft 21 kts 267°
2026-04-27 16:25 55.74188 9.14774 221 ft 21 kts 266°
2026-04-27 16:25 55.74103 9.14493 225 ft 14 kts 178°
2026-04-27 16:26 55.73925 9.14368 226 ft 16 kts 226°
2026-04-27 16:26 55.73839 9.14067 221 ft 7 kts 264°
2026-04-27 16:27 55.73792 9.14012 224 ft 2 kts 179°
2026-04-27 16:27 55.73763 9.14014 226 ft 0 kts 178°